Eau Claire, WI

5:50 PM CDT on October 01, 2016 (GMT -0500)
Chippewa Valley Regional

Weather History for KEAU - December, 2011

Change the Weather History Date:

Saturday, December 3, 2011

  Actual Average Record
Temperature  
Mean Temperature 34 °F 23 °F  
Max Temperature 37 °F 32 °F 61 °F (1998)
Min Temperature 30 °F 15 °F -20 °F (1919)
Degree Days  
Heating Degree Days 31 42  
Month to date heating degree days 115 124  
Since 1 July heating degree days 1623 1870  
Cooling Degree Days 0 0  
Month to date cooling degree days 0 0  
Year to date cooling degree days 655 579  
Moisture  
Dew Point 30 °F    
Average Humidity 85    
Maximum Humidity 100    
Minimum Humidity 70    
Precipitation  
Precipitation 0.31 in 0.04 in 0.60 in (1990)
Month to date precipitation 0.37 0.13  
Year to date precipitation 31.07 30.11  
Snow  
Snow 3.00 in 0.30 in 6.30 in (1990)
Month to date snowfall 3.5 0.9  
Since 1 July snowfall 4.7 7.2  
Snow Depth 3.00 in    
Sea Level Pressure  
Sea Level Pressure 29.99 in    
Wind  
Wind Speed 6 mph (West)    
Max Wind Speed 20 mph    
Max Gust Speed 25 mph    
Visibility 3 miles    
Events Fog , Snow    
T = Trace of Precipitation, MM = Missing Value Source: NWS Daily Summary

Daily Weather History Graph

Daily Weather History Graph

Search for Another Location

Airport or City:

Trip Planner

Search our weather history database for the weather conditions in past years. The results will help you decide how hot, cold, wet, or windy it might be!

Date:

Astronomy

Dec. 03, 2011 Rise Set
Actual Time 7:25 AM CST 4:25 PM CST
Civil Twilight 6:52 AM CST 4:58 PM CST
Nautical Twilight 6:15 AM CST 5:35 PM CST
Astronomical Twilight 5:40 AM CST 6:10 PM CST
Moon 12:43 PM CST (12/3) 12:39 AM CST (12/3)
Length of Visible Light 10h 06m
Length of Day
9h 00m
Waxing Gibbous, 63% of the Moon is Illuminated
Dec 3
Waxing Gibbous
Dec 10
Full
Dec 17
Last Quarter
Dec 24
New
Jan 1
First Quarter

Hourly Weather History & Observations

Time (CST) Temp. Windchill Dew Point Humidity Pressure Visibility Wind Dir Wind Speed Gust Speed Precip Events Conditions
12:56 AM 34.0 °F 24.6 °F 28.0 °F 79% 30.11 in 9.0 mi SSW 13.8 mph 21.9 mph N/A   Overcast
1:35 AM 33.8 °F 24.8 °F 28.4 °F 81% 30.07 in 8.0 mi SSW 12.7 mph - N/A   Overcast
1:56 AM 34.0 °F 25.5 °F 30.0 °F 85% 30.10 in 6.0 mi SSW 11.5 mph - N/A   Overcast
2:56 AM 34.0 °F 25.5 °F 30.0 °F 85% 30.10 in 8.0 mi SSW 11.5 mph - N/A   Overcast
3:56 AM 35.1 °F 26.9 °F 30.0 °F 82% 30.09 in 8.0 mi SSW 11.5 mph - N/A   Overcast
4:56 AM 35.1 °F 28.6 °F 30.0 °F 82% 30.10 in 8.0 mi SW 8.1 mph - N/A   Overcast
5:10 AM 33.8 °F 27.7 °F 30.2 °F 87% 30.06 in 8.0 mi SW 6.9 mph - N/A   Overcast
5:56 AM 33.8 °F 27.7 °F 30.2 °F 87% 30.07 in 8.0 mi SSW 6.9 mph - N/A   Overcast
6:56 AM 34.0 °F 28.8 °F 30.0 °F 85% 30.10 in 7.0 mi SSW 5.8 mph - N/A   Overcast
7:56 AM 34.0 °F 28.0 °F 30.0 °F 85% 30.10 in 6.0 mi South 6.9 mph - N/A   Overcast
8:56 AM 35.1 °F 29.3 °F 30.9 °F 85% 30.12 in 6.0 mi South 6.9 mph - N/A   Overcast
9:27 AM 35.6 °F 29.2 °F 30.2 °F 81% 30.08 in 6.0 mi SSW 8.1 mph - N/A   Haze
9:42 AM 35.6 °F 31.7 °F 30.2 °F 81% 30.08 in 6.0 mi SSW 4.6 mph - N/A   Haze
9:56 AM 35.1 °F 29.3 °F 30.0 °F 82% 30.11 in 6.0 mi SW 6.9 mph - N/A   Haze
10:56 AM 36.0 °F 30.3 °F 28.9 °F 76% 30.09 in 6.0 mi SSW 6.9 mph - N/A   Haze
11:56 AM 37.0 °F 31.0 °F 30.0 °F 76% 30.08 in 6.0 mi SW 8.1 mph - N/A   Haze
12:56 PM 37.0 °F 31.6 °F 28.9 °F 73% 30.04 in 6.0 mi SW 6.9 mph - N/A   Haze
1:39 PM 37.4 °F 32.1 °F 28.4 °F 70% 29.98 in 6.0 mi South 6.9 mph - N/A   Haze
1:56 PM 36.0 °F 30.3 °F 28.9 °F 76% 30.01 in 6.0 mi SSW 6.9 mph - N/A   Haze
2:26 PM 35.6 °F 30.7 °F 28.4 °F 75% 29.99 in 6.0 mi SW 5.8 mph - N/A   Haze
2:56 PM 35.1 °F 32.2 °F 30.0 °F 82% 30.01 in 3.0 mi South 3.5 mph - 0.00 in Snow Light Snow
3:03 PM 33.8 °F 30.8 °F 30.2 °F 87% 29.98 in 1.8 mi South 3.5 mph - 0.00 in Snow Light Snow
3:22 PM 33.8 °F - 30.2 °F 87% 29.97 in 0.8 mi Calm Calm - 0.01 in Snow Light Snow
3:43 PM 32.0 °F - 32.0 °F 100% 29.98 in 0.5 mi Calm Calm - 0.02 in Fog , Snow Snow
3:56 PM 32.0 °F - 30.9 °F 96% 30.01 in 0.2 mi Calm Calm - 0.04 in Fog , Snow Snow
4:23 PM 32.0 °F - 32.0 °F 100% 29.98 in 0.5 mi Calm Calm - 0.04 in Fog , Snow Snow
4:35 PM 32.0 °F - 32.0 °F 100% 29.97 in 0.5 mi Calm Calm - 0.06 in Fog , Snow Snow
4:44 PM 32.0 °F - 32.0 °F 100% 29.96 in 0.2 mi Calm Calm - 0.07 in Fog , Snow Heavy Snow
4:51 PM 32.0 °F - 32.0 °F 100% 29.95 in 0.5 mi Calm Calm - 0.08 in Fog , Snow Snow
4:56 PM 32.0 °F - 32.0 °F 100% 29.99 in 0.5 mi Calm Calm - 0.09 in Fog , Snow Snow
5:41 PM 32.0 °F - 30.2 °F 93% 29.96 in 0.2 mi Calm Calm - 0.05 in Fog , Snow Snow
5:46 PM 32.0 °F 28.7 °F 30.2 °F 93% 29.96 in 0.5 mi North 3.5 mph - 0.06 in Fog , Snow Snow
5:56 PM 32.0 °F 26.4 °F 30.9 °F 96% 29.99 in 1.0 mi NNW 5.8 mph - 0.06 in Snow Light Snow
6:16 PM 32.0 °F - 32.0 °F 100% 29.95 in 1.0 mi Calm Calm - 0.02 in Snow Light Snow
6:40 PM 32.0 °F 27.5 °F 30.2 °F 93% 29.94 in 1.5 mi North 4.6 mph - 0.03 in Snow Light Snow
6:56 PM 32.0 °F 28.7 °F 30.9 °F 96% 29.96 in 1.0 mi North 3.5 mph - 0.04 in Snow Light Snow
7:33 PM 32.0 °F 28.7 °F 30.2 °F 93% 29.93 in 2.5 mi North 3.5 mph - 0.01 in Snow Light Snow
7:45 PM 32.0 °F 28.7 °F 30.2 °F 93% 29.93 in 3.0 mi NNE 3.5 mph - 0.01 in Snow Light Snow
7:56 PM 32.0 °F - 30.9 °F 96% 29.97 in 4.0 mi Calm Calm - 0.01 in Snow Light Snow
8:13 PM 32.0 °F - 30.2 °F 93% 29.93 in 1.8 mi Calm Calm - 0.01 in Snow Light Snow
8:37 PM 32.0 °F - 30.2 °F 93% 29.92 in 0.8 mi Calm Calm - 0.02 in Snow Light Snow
8:56 PM 30.9 °F 27.5 °F 30.0 °F 96% 29.94 in 0.8 mi North 3.5 mph - 0.04 in Snow Light Snow
9:04 PM 30.2 °F 25.4 °F 30.2 °F 100% 29.91 in 1.0 mi NNW 4.6 mph - 0.00 in Snow Light Snow
9:16 PM 30.2 °F - 30.2 °F 100% 29.91 in 2.0 mi Calm Calm - 0.00 in Snow Light Snow
9:41 PM 30.2 °F 25.4 °F 30.2 °F 100% 29.90 in 1.5 mi North 4.6 mph - 0.01 in Snow Light Snow
9:56 PM 30.9 °F 26.2 °F 30.0 °F 96% 29.93 in 1.2 mi North 4.6 mph - 0.01 in Snow Light Snow
10:15 PM 30.2 °F 23.4 °F 30.2 °F 100% 29.89 in 1.5 mi North 6.9 mph - 0.01 in Snow Light Snow
10:32 PM 30.2 °F 23.4 °F 28.4 °F 93% 29.89 in 2.0 mi NNW 6.9 mph - 0.01 in Snow Light Snow
10:43 PM 30.2 °F 23.4 °F 28.4 °F 93% 29.88 in 1.8 mi North 6.9 mph - 0.01 in Snow Light Snow
10:56 PM 30.9 °F 25.2 °F 28.9 °F 92% 29.91 in 2.0 mi NNW 5.8 mph - 0.02 in Snow Light Snow
11:07 PM 30.2 °F 23.4 °F 28.4 °F 93% 29.88 in 2.0 mi NNW 6.9 mph - 0.00 in Snow Light Snow
11:13 PM 30.2 °F 23.4 °F 28.4 °F 93% 29.87 in 1.8 mi NNW 6.9 mph - 0.00 in Snow Light Snow
11:21 PM 30.2 °F 24.3 °F 28.4 °F 93% 29.88 in 2.0 mi NNW 5.8 mph - 0.00 in Snow Light Snow
11:40 PM 30.2 °F 25.4 °F 28.4 °F 93% 29.87 in 3.0 mi NNW 4.6 mph - 0.00 in Snow Light Snow
11:56 PM 30.0 °F 25.2 °F 28.9 °F 96% 29.89 in 4.0 mi North 4.6 mph - 0.00 in Snow Light Snow